Location: Bay Harbour
(38.2612°N, 75.2555°W)
Time: 00:00:23
(UTC+00:00)

CZ-2C R/B - Pass Details

Date: 29 October 2020
Orbit: 703 x 909 km, 98.1° (Epoch: 03 December)

Event Time Altitude Azimuth Distance (km) Brightness Sun altitude
Rises 22:37:31 0° 129° (SE) 3,523 6.1 -7.1°
Reaches altitude 10° 22:40:25 10° 116° (ESE) 2,576 5.3 -7.7°
Maximum altitude 22:44:48 23° 66° (ENE) 1,795 4.3 -8.5°
Drops below altitude 10° 22:49:07 10° 16° (NNE) 2,523 5.4 -9.4°
Sets 22:51:55 0° 3° (N) 3,433 6.2 -9.9°
